Terminal Aerodrome Forecast
Issued by NWS

Home | Current Version | Previous Version | Text Only | Print | Product List | Glossary On
Versions: 1 2 3 4 5 6 7 8 9 10 11 12 13 14 15 16 17 18
000
FTUS41 KPBZ 280500
TAFBVI
TAF
KBVI 280524Z 2806/2906 31010KT P6SM VCSH SCT019
      TEMPO 2806/2807 BKN019
     FM280900 27003KT P6SM SKC
     FM290400 VRB03KT P6SM BKN100
      AMD NOT SKED=

USA.gov is the U.S. government's official web portal to all federal, state and local government web resources and services.